[[{"header":{"parameterUnit":"m.s-1","parameterCategory":1,"la1":30.2991,"la2":30.254,"lo1":-89.0895,"lo2":-89.0444,"dy":0.0017,"dx":0.0017,"nx":28,"ny":28,"refTime":"2026-02-12T03:00:00:Z","depth":0,"parameterNumber":2,"parameterNumberName":"U-component_of_WINDS"},"data":[0,0,0,0,0,0,0,0,0,0,0,0,0,0,0,0,0,0,0,0,0,0,0,0,0,0,0,0,0,0,0,0,0,0,0,0,0,0,0,0,0,0,0,0,0,0,0,0,0,0,0,0,0,0,0,0,0,0,-1.8775,-1.8775,0,-1.8768,-1.8768,-1.8768,-1.8737,-1.8736,-1.8735,-1.8735,-1.8729,-1.8729,-1.873,0,0,0,0,0,0,0,0,0,0,0,0,0,-1.8763,-1.8763,-1.8775,-1.8775,-1.8775,-1.8768,-1.8768,-1.8768,-1.8737,-1.8736,-1.8735,-1.8734,-1.8728,-1.8729,-1.873,0,0,0,0,0,0,0,0,0,0,0,0,0,-1.8763,-1.8763,-1.8775,-1.8759,-1.8757,-1.8768,-1.8768,-1.8768,-1.8737,-1.8736,-1.8735,-1.8734,-1.8728,-1.8729,-1.873,-1.8757,0,0,-1.8732,-1.8732,0,0,0,0,0,0,0,0,-1.8763,-1.8764,-1.8761,-1.876,-1.8758,-1.8752,-1.8762,-1.8764,-1.8737,-1.8745,-1.8735,-1.8733,-1.8737,-1.8737,-1.8738,-1.8756,-1.8756,-1.8732,-1.8733,-1.8733,-1.8733,0,0,0,0,0,0,0,-1.8763,-1.8764,-1.8772,-1.8761,-1.8759,-1.8752,-1.8751,-1.8762,-1.8747,-1.8744,-1.8742,-1.8741,-1.8736,-1.8738,-1.8738,-1.8756,-1.8732,-1.8733,-1.8733,-1.8734,-1.8797,-1.8798,0,0,0,0,0,0,-1.8766,-1.8764,-1.8773,-1.8772,-1.8758,-1.8753,-1.8752,-1.8755,-1.8747,-1.8745,-1.8742,-1.874,-1.8737,-1.8737,-1.8738,-1.877,-1.8733,-1.8734,-1.8734,-1.8796,-1.8797,-1.8799,0,0,0,0,0,0,-1.8765,-1.8767,-1.8773,-1.8768,-1.8768,-1.8754,-1.8759,-1.8756,-1.8757,-1.8746,-1.8743,-1.8746,-1.8736,-1.8737,-1.8752,-1.877,-1.8734,-1.8735,-1.8794,-1.8796,-1.8798,-1.8834,0,0,0,0,0,0,-1.8765,-1.8767,-1.8777,-1.8768,-1.8768,-1.8787,-1.876,-1.8756,-1.8758,-1.8755,-1.8749,-1.8747,-1.8735,-1.8751,-1.8753,-1.877,-1.8735,-1.8793,-1.8795,-1.8797,-1.8832,-1.8837,-1.8842,0,0,0,0,0,-1.8765,-1.8787,-1.8777,-1.8778,-1.878,-1.8788,-1.8789,-1.8775,-1.876,-1.877,-1.8763,-1.8747,-1.8767,-1.8753,-1.8755,-1.8772,-1.8792,-1.8795,-1.8797,-1.8829,-1.8836,-1.8842,0,0,0,0,0,0,-1.8798,-1.8786,-1.8775,-1.8794,-1.8793,-1.8783,-1.8795,-1.8782,-1.8785,-1.8782,-1.8764,-1.8763,-1.8782,-1.8778,-1.8763,-1.8799,-1.8777,-1.878,-1.8801,-1.8807,-1.8812,-1.8813,-1.8736,0,0,0,0,0,-1.8808,-1.8815,-1.8804,-1.8822,-1.8822,-1.8809,-1.8812,-1.8801,-1.8799,-1.8798,-1.8792,-1.8791,-1.8797,-1.8801,-1.8806,-1.883,-1.883,-1.8843,-1.8848,-1.8853,-1.8856,-1.887,-1.8877,-1.8808,-1.8808,-1.8808,0,0,-1.8828,-1.8822,-1.8827,-1.8829,-1.8826,-1.8835,-1.8809,-1.8819,-1.8826,-1.88,-1.8815,-1.881,-1.8808,-1.8828,-1.8837,-1.8826,-1.8875,-1.8856,-1.886,-1.8861,-1.8874,-1.8881,-1.8886,-1.8809,-1.8809,-1.8809,0,0,-1.8869,-1.8865,-1.888,-1.8878,-1.8875,-1.8866,-1.887,-1.8862,-1.8858,-1.8873,-1.8854,-1.8862,-1.8872,-1.8872,-1.8873,-1.8915,-1.8901,-1.8916,-1.8944,-1.8958,-1.8964,-1.8969,-1.8985,-1.8991,-1.892,-1.892,-1.892,0,-1.8895,-1.8907,-1.889,-1.8902,-1.8904,-1.8881,-1.8897,-1.8896,-1.8895,-1.8897,-1.8884,-1.8897,-1.8894,-1.8915,-1.8925,-1.8926,-1.8931,-1.8918,-1.8964,-1.8969,-1.8973,-1.8989,-1.8995,-1.8922,-1.8922,-1.8921,-1.8921,0,-1.8939,-1.8948,-1.8961,-1.8961,-1.8964,-1.8978,-1.8964,-1.8969,-1.8958,-1.8951,-1.8967,-1.8962,-1.8966,-1.8969,-1.8958,-1.8989,-1.8983,-1.8967,-1.8945,-1.8982,-1.8997,-1.9003,-1.8925,-1.8924,-1.8923,-1.8923,0,0,-1.9003,-1.8993,-1.8998,-1.8998,-1.8992,-1.8999,-1.9012,-1.9016,-1.9022,-1.9021,-1.9033,-1.9042,-1.9028,-1.9029,-1.9018,-1.903,-1.9066,-1.9014,-1.9013,-1.9025,-1.9102,-1.9115,-1.9122,-1.9056,-1.9057,-1.9058,-1.9103,0,-1.9044,-1.9066,-1.9052,-1.9077,-1.9086,-1.9063,-1.9075,-1.9074,-1.9067,-1.9074,-1.9066,-1.9074,-1.9054,-1.9055,-1.9066,-1.9059,-1.9081,-1.9056,-1.9068,-1.9069,-1.9072,-1.9129,-1.9143,-1.9185,-1.9108,-1.9109,-1.9109,0,-1.9095,-1.9097,-1.9123,-1.9117,-1.912,-1.9131,-1.9134,-1.914,-1.9138,-1.9132,-1.9134,-1.912,-1.9134,-1.9111,-1.913,-1.9113,-1.9117,-1.9114,-1.9116,-1.9118,-1.9093,-1.9135,-1.9198,-1.9206,-1.9118,-1.9117,-1.9117,0,-1.9141,-1.915,-1.9167,-1.9168,-1.916,-1.9169,-1.9166,-1.9162,-1.9166,-1.9168,-1.9171,-1.9175,-1.9178,-1.9181,-1.9169,-1.9153,-1.9191,-1.9166,-1.9188,-1.9189,-1.9199,-1.9199,-1.9266,-1.9198,-1.9198,-1.9197,-1.9197,0,-1.919,-1.9207,-1.9188,-1.9199,-1.9218,-1.9201,-1.922,-1.9215,-1.9213,-1.9223,-1.9203,-1.9213,-1.9195,-1.9204,-1.9194,-1.9213,-1.9213,-1.921,-1.9208,-1.9213,-1.9214,-1.9217,-1.9215,-1.9199,-1.9199,-1.9198,-1.9198,0,-1.9246,-1.9233,-1.9251,-1.9242,-1.924,-1.9255,-1.9248,-1.9258,-1.925,-1.9263,-1.9265,-1.9253,-1.9262,-1.9249,-1.9257,-1.925,-1.9276,-1.9268,-1.9277,-1.9276,-1.9299,-1.9298,-1.9372,-1.9382,-1.9306,-1.9307,-1.9307,0,-1.9279,-1.9292,-1.9284,-1.929,-1.9288,-1.9297,-1.93,-1.9284,-1.9289,-1.9288,-1.9298,-1.9305,-1.931,-1.9326,-1.9318,-1.9324,-1.9317,-1.9343,-1.9318,-1.9324,-1.932,-1.9321,-1.9323,-1.9349,-1.935,-1.935,-1.9351,0,-1.9339,-1.9333,-1.9338,-1.9343,-1.9347,-1.935,-1.9351,-1.9356,-1.9339,-1.9346,-1.9355,-1.9358,-1.9366,-1.9374,-1.9378,-1.9376,-1.9362,-1.9358,-1.9364,-1.9371,-1.9377,-1.9376,-1.9293,-1.9357,-1.9357,-1.9356,-1.9356,-1.9356,-1.9386,-1.9397,-1.9394,-1.9402,-1.94,-1.9402,-1.9411,-1.9405,-1.9412,-1.9417,-1.9406,-1.9418,-1.9417,-1.942,-1.942,-1.9429,-1.9418,-1.9426,-1.9429,-1.9431,-1.9436,-1.9373,-1.943,-1.943,-1.9429,-1.9429,-1.9429,0,-1.9447,-1.9444,-1.9451,-1.9454,-1.946,-1.9444,-1.9445,-1.9451,-1.9462,-1.9461,-1.9466,-1.9477,-1.9485,-1.9478,-1.9484,-1.9493,-1.9487,-1.9496,-1.9496,-1.9496,-1.9444,-1.944,-1.9501,-1.9501,-1.9501,-1.9501,-1.9501,-1.9501,-1.948,-1.9499,-1.9492,-1.951,-1.9506,-1.9518,-1.952,-1.9521,-1.9521,-1.9534,-1.954,-1.9535,-1.9532,-1.9539,-1.9545,-1.9543,-1.9547,-1.9559,-1.9555,-1.9507,-1.95,-1.9493,-1.9489,-1.956,-1.956,-1.9606,-1.9607,-1.9607]},{"header":{"parameterUnit":"m.s-1","parameterCategory":1,"la1":30.2991,"la2":30.254,"lo1":-89.0895,"lo2":-89.0444,"dy":0.0017,"dx":0.0017,"nx":28,"ny":28,"refTime":"2026-02-12T03:00:00:Z","depth":0,"parameterNumber":3,"parameterNumberName":"V-component_of_WINDS"},"data":[0,0,0,0,0,0,0,0,0,0,0,0,0,0,0,0,0,0,0,0,0,0,0,0,0,0,0,0,0,0,0,0,0,0,0,0,0,0,0,0,0,0,0,0,0,0,0,0,0,0,0,0,0,0,0,0,0,0,-2.5129,-2.5129,0,-2.5136,-2.5136,-2.5136,-2.5117,-2.5117,-2.5116,-2.5116,-2.5122,-2.5123,-2.5124,0,0,0,0,0,0,0,0,0,0,0,0,0,-2.5098,-2.5098,-2.5129,-2.5129,-2.5129,-2.5136,-2.5136,-2.5136,-2.5117,-2.5117,-2.5116,-2.5115,-2.5122,-2.5123,-2.5124,0,0,0,0,0,0,0,0,0,0,0,0,0,-2.5109,-2.5098,-2.5129,-2.512,-2.512,-2.5136,-2.5136,-2.5136,-2.5118,-2.5117,-2.5116,-2.5115,-2.5122,-2.5123,-2.5124,-2.5149,0,0,-2.5127,-2.5128,0,0,0,0,0,0,0,0,-2.5108,-2.511,-2.5122,-2.5121,-2.512,-2.5125,-2.5128,-2.514,-2.5118,-2.5118,-2.5116,-2.5114,-2.5124,-2.5125,-2.5128,-2.5149,-2.5149,-2.5127,-2.5128,-2.5128,-2.5129,0,0,0,0,0,0,0,-2.5107,-2.5109,-2.5132,-2.5122,-2.5121,-2.5116,-2.5117,-2.513,-2.5126,-2.5118,-2.5117,-2.5118,-2.5123,-2.5127,-2.5128,-2.5149,-2.5127,-2.5128,-2.5129,-2.5129,-2.5192,-2.5193,0,0,0,0,0,0,-2.5108,-2.5109,-2.5131,-2.5132,-2.5112,-2.5117,-2.5118,-2.5124,-2.5126,-2.5125,-2.5119,-2.5117,-2.5126,-2.5127,-2.5128,-2.5158,-2.5128,-2.5129,-2.513,-2.5191,-2.5192,-2.5193,0,0,0,0,0,0,-2.5107,-2.511,-2.5131,-2.512,-2.5122,-2.5119,-2.5126,-2.5125,-2.5129,-2.5126,-2.5125,-2.5123,-2.5125,-2.5127,-2.5144,-2.5158,-2.513,-2.5131,-2.519,-2.5191,-2.5193,-2.5217,0,0,0,0,0,0,-2.5106,-2.511,-2.5119,-2.512,-2.5123,-2.5147,-2.5127,-2.5126,-2.5131,-2.5129,-2.513,-2.513,-2.5124,-2.5142,-2.5145,-2.5159,-2.5132,-2.5188,-2.519,-2.5192,-2.5215,-2.522,-2.5223,0,0,0,0,0,-2.5105,-2.5125,-2.512,-2.5123,-2.5135,-2.5148,-2.5149,-2.5143,-2.5132,-2.5141,-2.514,-2.513,-2.5156,-2.5144,-2.5147,-2.5162,-2.5187,-2.519,-2.5192,-2.5214,-2.5219,-2.5223,0,0,0,0,0,0,-2.5125,-2.5125,-2.5119,-2.514,-2.5144,-2.5145,-2.5156,-2.5148,-2.5155,-2.5153,-2.5144,-2.5145,-2.5164,-2.5164,-2.5152,-2.5186,-2.517,-2.5173,-2.5185,-2.519,-2.5194,-2.5194,-2.5133,0,0,0,0,0,-2.5132,-2.5143,-2.5142,-2.5161,-2.5164,-2.516,-2.5165,-2.516,-2.5164,-2.5165,-2.5165,-2.5168,-2.5178,-2.5184,-2.5192,-2.5215,-2.5216,-2.5227,-2.523,-2.5234,-2.5236,-2.525,-2.5255,-2.52,-2.52,-2.52,0,0,-2.5146,-2.5148,-2.5155,-2.5165,-2.5168,-2.5179,-2.5161,-2.5174,-2.5182,-2.5167,-2.5183,-2.5184,-2.5187,-2.5208,-2.5217,-2.5209,-2.5252,-2.5237,-2.5239,-2.524,-2.5253,-2.5258,-2.5262,-2.5202,-2.5202,-2.5201,0,0,-2.5179,-2.518,-2.5197,-2.52,-2.5204,-2.5202,-2.5206,-2.5207,-2.5207,-2.5224,-2.5213,-2.5223,-2.5238,-2.5242,-2.5245,-2.528,-2.5271,-2.5283,-2.5304,-2.5317,-2.5321,-2.5325,-2.5338,-2.5343,-2.5285,-2.5286,-2.5286,0,-2.5196,-2.5213,-2.5206,-2.522,-2.5225,-2.5212,-2.5229,-2.5232,-2.5239,-2.5242,-2.5233,-2.5254,-2.5255,-2.5277,-2.5285,-2.5288,-2.5293,-2.5283,-2.5321,-2.5325,-2.5328,-2.5341,-2.5345,-2.5287,-2.5287,-2.5287,-2.5287,0,-2.5234,-2.5246,-2.5259,-2.5267,-2.5273,-2.5288,-2.5284,-2.5291,-2.5285,-2.5284,-2.5302,-2.5303,-2.5312,-2.5316,-2.5311,-2.5338,-2.5333,-2.5322,-2.5306,-2.5335,-2.5346,-2.5351,-2.5289,-2.5289,-2.5288,-2.5288,0,0,-2.5278,-2.5283,-2.5288,-2.5292,-2.5296,-2.5305,-2.532,-2.5329,-2.5336,-2.5341,-2.5353,-2.5368,-2.5358,-2.5363,-2.5357,-2.5369,-2.5397,-2.5357,-2.5357,-2.5365,-2.5428,-2.5437,-2.5442,-2.5391,-2.5392,-2.5393,-2.5428,0,-2.5311,-2.5337,-2.5332,-2.5357,-2.5369,-2.5357,-2.537,-2.5374,-2.5373,-2.5383,-2.5382,-2.5392,-2.5379,-2.5382,-2.5392,-2.5392,-2.541,-2.5389,-2.5403,-2.5404,-2.5403,-2.5448,-2.5457,-2.549,-2.5433,-2.5433,-2.5434,0,-2.5352,-2.536,-2.5387,-2.539,-2.5395,-2.5407,-2.5415,-2.5424,-2.5429,-2.5428,-2.5433,-2.5426,-2.5441,-2.5424,-2.5445,-2.5431,-2.5436,-2.5437,-2.5438,-2.544,-2.5421,-2.5452,-2.55,-2.5506,-2.5441,-2.544,-2.544,0,-2.5383,-2.54,-2.5418,-2.5422,-2.5426,-2.5435,-2.5437,-2.5441,-2.5447,-2.5454,-2.5459,-2.5467,-2.5472,-2.5479,-2.5475,-2.5463,-2.5497,-2.5479,-2.5496,-2.5497,-2.5504,-2.5504,-2.5555,-2.5507,-2.5507,-2.5507,-2.5507,0,-2.542,-2.5437,-2.5433,-2.5444,-2.5463,-2.5457,-2.5476,-2.5477,-2.548,-2.5492,-2.5482,-2.5493,-2.5486,-2.5497,-2.5493,-2.5512,-2.5514,-2.5513,-2.5512,-2.5514,-2.5515,-2.5518,-2.5516,-2.5508,-2.5508,-2.5508,-2.5507,0,-2.5458,-2.5455,-2.5475,-2.5478,-2.5479,-2.5493,-2.5495,-2.5506,-2.5505,-2.552,-2.5523,-2.5521,-2.5533,-2.5529,-2.5541,-2.5539,-2.5563,-2.5558,-2.5562,-2.5561,-2.5578,-2.5577,-2.5635,-2.5642,-2.5588,-2.5589,-2.5589,0,-2.5482,-2.5495,-2.5499,-2.5507,-2.551,-2.5522,-2.5528,-2.5523,-2.553,-2.5537,-2.5547,-2.5559,-2.5567,-2.5587,-2.5587,-2.5597,-2.5593,-2.5612,-2.5594,-2.5597,-2.5594,-2.5594,-2.5596,-2.5616,-2.5617,-2.5617,-2.5618,0,-2.5525,-2.5523,-2.5534,-2.5544,-2.5552,-2.556,-2.5566,-2.5573,-2.5568,-2.5577,-2.5589,-2.5596,-2.561,-2.5621,-2.5631,-2.5633,-2.5625,-2.5623,-2.5628,-2.5631,-2.5632,-2.5633,-2.5572,-2.5622,-2.5622,-2.5621,-2.5621,-2.5621,-2.5557,-2.5568,-2.5574,-2.5586,-2.5591,-2.5597,-2.5608,-2.5609,-2.5619,-2.563,-2.5626,-2.5641,-2.5646,-2.5658,-2.5661,-2.5673,-2.5665,-2.5672,-2.5673,-2.5675,-2.5678,-2.563,-2.5674,-2.5674,-2.5674,-2.5674,-2.5674,0,-2.56,-2.5604,-2.5615,-2.5625,-2.5635,-2.5627,-2.5634,-2.5643,-2.5656,-2.5661,-2.5671,-2.5686,-2.5697,-2.5698,-2.5709,-2.5718,-2.5714,-2.5721,-2.572,-2.5721,-2.5684,-2.5679,-2.5723,-2.5723,-2.5723,-2.5723,-2.5723,-2.5723,-2.5624,-2.5644,-2.5643,-2.5665,-2.5668,-2.5683,-2.5688,-2.5694,-2.5699,-2.5716,-2.5726,-2.5727,-2.5731,-2.5742,-2.5752,-2.5752,-2.5757,-2.5765,-2.5764,-2.5729,-2.5724,-2.5719,-2.5715,-2.5766,-2.5766,-2.58,-2.5801,-2.5801]}]]